Weather reports worldwide

Advertisment
Helgoland, Germany (10015): temperature & dewpoint: 16.01.2019 04:00:00 - 22.01.2019 04:00:00 (CET)Helgoland, Germany (10015): temperature 5cm: 16.01.2019 04:00:00 - 22.01.2019 04:00:00 (CET)Helgoland, Germany (10015): reduced air pressure: 16.01.2019 04:00:00 - 22.01.2019 04:00:00 (CET)Helgoland, Germany (10015): visibility: 16.01.2019 04:00:00 - 22.01.2019 04:00:00 (CET)Helgoland, Germany (10015): sunshine duration: 16.01.2019 04:00:00 - 22.01.2019 04:00:00 (CET)Helgoland, Germany (10015): precipitation: 16.01.2019 04:00:00 - 22.01.2019 04:00:00 (CET)
Date & Time tt [°C] td [°C] tt 5cm [°C] ppp [hPa] vv [km] sd [min] rr [mm]
22.01.2019 04:00:00 2,7 0,6 2,2 1011,5 11 0 0,0
22.01.2019 03:00:00 3,0 1,8 2,2 1012,4 7 0 0,0
22.01.2019 02:00:00 2,7 2,4 2,7 1013,3 2,5 0 0,0
22.01.2019 01:00:00 2,2 1,8 2,2 1014,2 0,3 0 0,0
22.01.2019 00:00:00 3,1 2,2 2,6 1014,9 5 0 0,1
21.01.2019 23:00:00 3,9 0,8 3,0 1015,5 13 0 0,0
21.01.2019 22:00:00 3,9 1,6 3,1 1015,9 35 0 0,0
21.01.2019 21:00:00 4,6 2,7 2,9 1016,2 26 0 0,0
21.01.2019 20:00:00 4,7 0,6 3,2 1016,5 41 0 0,0
21.01.2019 19:00:00 5,1 1,7 2,8 1016,9 32 0 0,0
21.01.2019 18:00:00 5,2 1,2 4,0 1017,2 38 0 0,0
21.01.2019 17:00:00 5,5 1,7 4,0 1017,6 29 0 0,1
21.01.2019 16:00:00 5,8 2,2 5,1 1017,8 13 45 0,0
21.01.2019 15:00:00 6,0 1,8 5,2 1018,0 32 60 0,0
21.01.2019 14:00:00 5,9 1,1 6,3 1018,6 29 53 0,0
21.01.2019 13:00:00 5,9 3,2 6,6 1019,0 30 60 0,0
21.01.2019 12:00:00 5,5 3,4 6,0 1019,6 28 60 0,0
21.01.2019 11:00:00 5,2 3,4 5,1 1019,9 20 50 0,0
21.01.2019 10:00:00 4,5 2,5 3,0 1019,9 26 0 0,6
21.01.2019 09:00:00 4,6 2,5 3,9 1019,9 13 0 0,0
21.01.2019 08:00:00 3,6 0,7 3,0 1019,9 12 0 0,0
21.01.2019 07:00:00 3,0 0,2 2,4 1020,0 13 0 0,0
21.01.2019 06:00:00 2,6 -0,6 1,7 1020,4 14 0 0,0
21.01.2019 05:00:00 2,1 -0,2 0,9 1020,9 11 0 0,0
21.01.2019 04:00:00 1,9 -0,8 0,5 1021,0 13 0 0,0
21.01.2019 03:00:00 1,8 -2,0 0,2 1021,7 20 0 0,0
21.01.2019 02:00:00 1,9 -2,4 -0,1 1022,0 24 0 0,0
21.01.2019 01:00:00 2,0 -2,7 0,0 1022,5 29 0 0,0
21.01.2019 00:00:00 2,0 -3,3 -0,5 1022,5 43 0 0,0
20.01.2019 23:00:00 2,2 -3,5 -0,3 1022,3 50 0 0,0
20.01.2019 22:00:00 2,1 -3,4 -0,6 1022,2 49 0 0,0
20.01.2019 21:00:00 2,1 -2,6 -0,8 1021,9 41 0 0,0
20.01.2019 20:00:00 2,1 -3,3 -0,8 1021,6 43 0 0,0
20.01.2019 19:00:00 2,2 -3,9 0,3 1021,2 45 0 0,0
20.01.2019 18:00:00 2,1 -3,1 -1,0 1021,0 47 0 0,0
20.01.2019 17:00:00 2,2 -3,1 -0,4 1020,5 50 7 0,0
20.01.2019 16:00:00 2,8 -2,7 2,2 1020,3 39 57 0,0
20.01.2019 15:00:00 3,0 -2,6 1,8 1020,1 40 8 0,0
20.01.2019 14:00:00 2,8 -2,3 3,3 1020,0 46 0 0,0
20.01.2019 13:00:00 2,7 -2,1 2,9 1019,9 32 0 0,0
20.01.2019 12:00:00 2,5 -1,9 2,6 1019,8 32 0 0,0
20.01.2019 11:00:00 2,4 -1,3 2,0 1019,6 24 0 0,0
20.01.2019 10:00:00 2,2 -1,7 1,3 1019,0 26 0 0,0
20.01.2019 09:00:00 2,1 -1,4 0,9 1018,3 23 0 0,0
20.01.2019 08:00:00 2,1 -1,9 0,2 1017,9 29 0 0,0
20.01.2019 07:00:00 1,8 -1,6 0,2 1017,5 23 0 0,0
20.01.2019 06:00:00 1,8 -0,9 0,4 1017,3 18 0 0,0
20.01.2019 05:00:00 1,8 -1,0 0,0 1017,3 20 0 0,0
20.01.2019 04:00:00 2,1 -1,2 1,0 1017,4 22 0 0,0
20.01.2019 03:00:00 2,4 -1,3 0,8 1017,3 27 0 0,0
20.01.2019 02:00:00 2,4 -2,3 0,6 1017,3 29 0 0,0
20.01.2019 01:00:00 2,6 -1,5 0,8 1017,3 31 0 0,0
20.01.2019 00:00:00 2,6 -2,8 0,8 1017,5 41 0 0,0
19.01.2019 23:00:00 2,6 -2,4 0,8 1017,3 35 0 0,0
19.01.2019 22:00:00 2,6 -2,4 0,6 1017,2 40 0 0,0
19.01.2019 21:00:00 2,3 -3,6 0,4 1017,3 43 0 0,0
19.01.2019 20:00:00 2,4 -3,6 0,5 1017,3 39 0 0,0
19.01.2019 19:00:00 2,3 -3,0 0,3 1017,1 35 0 0,0
19.01.2019 18:00:00 2,2 -3,4 0,2 1017,1 46 0 0,0
19.01.2019 17:00:00 2,1 -2,6 0,4 1017,2 26 6 0,0
19.01.2019 16:00:00 2,4 -3,1 1,8 1017,3 37 60 0,0
19.01.2019 15:00:00 2,6 -3,2 1,4 1017,7 35 60 0,0
19.01.2019 14:00:00 2,8 -2,6 4,9 1018,2 39 60 0,0
19.01.2019 13:00:00 2,9 -2,3 5,0 1018,6 25 60 0,0
19.01.2019 12:00:00 2,5 -2,3 3,7 1019,0 23 60 0,0
19.01.2019 11:00:00 2,5 -2,1 2,8 1019,1 22 60 0,0
19.01.2019 10:00:00 2,4 -1,9 1,4 1018,9 20 26 0,0
19.01.2019 09:00:00 2,2 -2,0 0,6 1018,5 20 0 0,0
19.01.2019 08:00:00 2,4 -2,4 0,6 1018,3 26 0 0,0
19.01.2019 07:00:00 2,8 -1,9 1,0 1018,0 35 0 0,0
19.01.2019 06:00:00 2,9 -0,7 1,3 1018,2 31 0 0,0
19.01.2019 05:00:00 3,1 0,2 1,3 1018,4 28 0 0,0
19.01.2019 04:00:00 3,6 0,4 2,0 1018,5 22 0 0,0
19.01.2019 03:00:00 3,5 1,5 1,9 1018,8 12 0 0,0
19.01.2019 02:00:00 4,0 2,2 2,2 1018,7 14 0 0,0
19.01.2019 01:00:00 4,2 2,2 2,8 1019,0 13 0 0,0
19.01.2019 00:00:00 4,5 1,9 3,0 1018,8 24 0 0,0
18.01.2019 23:00:00 4,9 0,2 3,3 1018,7 43 0 0,0
18.01.2019 22:00:00 4,8 1,7 3,2 1018,6 39 0 0,0
18.01.2019 21:00:00 4,8 0,6 2,6 1018,4 46 0 0,0
18.01.2019 20:00:00 4,1 -0,3 1,7 1018,2 46 0 0,1
18.01.2019 19:00:00 4,6 1,2 2,6 1017,9 42 0 0,0
18.01.2019 18:00:00 4,6 1,1 2,9 1017,8 42 0 0,0
18.01.2019 17:00:00 4,4 0,9 2,7 1017,8 49 4 0,0
18.01.2019 16:00:00 4,4 1,0 3,6 1017,7 48 60 0,0
18.01.2019 15:00:00 4,4 1,0 3,4 1017,4 60 60 0,0
18.01.2019 14:00:00 4,2 0,8 5,3 1017,3 50 38 0,0
18.01.2019 13:00:00 4,9 0,4 5,7 1017,0 40 54 0,0
18.01.2019 12:00:00 4,6 1,0 5,6 1016,8 39 54 0,0
18.01.2019 11:00:00 3,5 0,8 2,6 1016,3 46 50 0,0
18.01.2019 10:00:00 3,0 -0,3 1,4 1015,8 0,7 0 0,0
18.01.2019 09:00:00 3,5 0,3 1,7 1015,2 22 0 0,2
18.01.2019 08:00:00 3,5 0,9 1,5 1014,5 36 0 0,1
18.01.2019 07:00:00 2,1 0,0 1,5 1014,5 14 0 0,4
18.01.2019 06:00:00 4,3 -2,4 2,2 1013,6 28 0 0,0
18.01.2019 05:00:00 4,1 -3,6 1,6 1013,2 50 0 0,0
18.01.2019 04:00:00 3,5 -4,3 0,7 1012,7 49 0 0,0
18.01.2019 03:00:00 3,4 -3,3 0,9 1012,1 41 0 0,0
18.01.2019 02:00:00 3,1 -3,7 0,3 1011,4 43 0 0,0
18.01.2019 01:00:00 2,8 -4,0 0,2 1010,6 43 0 0,0
18.01.2019 00:00:00 2,9 -3,2 0,5 1009,3 47 0 0,0
17.01.2019 23:00:00 2,4 -2,8 0,5 1008,2 59 0 0,0
17.01.2019 22:00:00 2,3 -1,9 0,7 1006,9 43 0 0,0
17.01.2019 21:00:00 1,6 -1,8 0,9 1005,0 18 0 0,0
17.01.2019 20:00:00 2,2 -1,7 0,9 1003,1 42 0 0,0
17.01.2019 19:00:00 2,5 -1,1 0,9 1000,7 40 0 0,0
17.01.2019 18:00:00 4,3 -1,1 2,7 999,0 34 0 0,0
17.01.2019 17:00:00 3,0 -0,1 2,0 998,1 41 0 1,4
17.01.2019 16:00:00 2,4 0,9 1,6 997,4 3,9 6 0,5
17.01.2019 15:00:00 3,9 0,9 3,2 996,4 11 22 0,0
17.01.2019 14:00:00 4,2 1,8 4,7 996,0 19 28 0,0
17.01.2019 13:00:00 4,4 1,4 4,2 995,6 15 7 0,0
17.01.2019 12:00:00 5,2 1,4 5,0 995,0 19 15 0,0
17.01.2019 11:00:00 5,5 2,3 5,0 994,5 17 14 0,0
17.01.2019 10:00:00 5,2 2,5 4,2 994,0 14 0 0,1
17.01.2019 09:00:00 5,7 2,5 4,2 993,4 17 0 0,1
17.01.2019 08:00:00 6,1 2,4 5,7 993,2 15 0 0,0
17.01.2019 07:00:00 6,1 2,0 5,0 993,3 17 0 0,1
17.01.2019 06:00:00 6,0 3,0 5,2 993,6 15 0 0,0
17.01.2019 05:00:00 6,5 3,0 5,7 994,0 17 0 0,0
17.01.2019 04:00:00 6,4 3,1 5,2 994,4 17 0 0,0
17.01.2019 03:00:00 5,9 2,7 4,9 994,4 20 0 0,0
17.01.2019 02:00:00 5,9 3,8 5,2 994,4 21 0 0,0
17.01.2019 01:00:00 5,7 3,1 4,8 994,5 23 0 0,1
17.01.2019 00:00:00 5,3 3,2 4,7 995,1 8 0 0,2
16.01.2019 23:00:00 5,8 4,4 5,3 995,1 8 0 0,2
16.01.2019 22:00:00 5,6 4,3 5,3 995,1 4,4 0 0,0
16.01.2019 21:00:00 5,7 4,5 5,4 995,6 5 0 0,1
16.01.2019 20:00:00 5,7 4,7 5,5 996,3 2,5 0 0,0
16.01.2019 19:00:00 6,1 4,9 5,7 997,0 5 0 0,0
16.01.2019 18:00:00 5,8 5,0 5,7 997,9 2,0 0 0,0
16.01.2019 17:00:00 6,0 5,2 5,8 998,7 2,5 0 0,0
16.01.2019 16:00:00 6,1 5,4 6,0 999,2 2,9 0 0,1
16.01.2019 15:00:00 6,3 5,5 6,1 999,8 3,9 0 0,0
16.01.2019 14:00:00 6,7 5,8 6,6 1000,2 4,8 0 0,1
16.01.2019 13:00:00 6,6 6,0 6,5 1001,0 4,0 0 0,2
16.01.2019 12:00:00 6,8 6,0 6,7 1001,9 3,0 0 0,0
16.01.2019 11:00:00 7,1 5,8 7,3 1002,6 - 0 0,0
16.01.2019 10:00:00 7,0 5,4 6,9 1003,3 - 0 0,0
16.01.2019 09:00:00 7,0 5,6 6,8 1003,5 11 0 0,0
16.01.2019 08:00:00 7,0 5,7 6,8 1003,8 9 0 0,0
16.01.2019 07:00:00 7,0 5,8 6,7 1004,3 8 0 0,0
16.01.2019 06:00:00 7,0 5,7 6,7 1004,7 8 0 0,0
16.01.2019 05:00:00 6,9 5,7 6,5 1005,5 8 0 0,0
16.01.2019 04:00:00 6,9 5,6 6,5 1006,1 8 0 0,0

tt = temperature
td = dewpoint
tt 5cm = temperature 5cm
ppp = reduced air pressure
vv = visibility
sd = sunshine duration
rr = precipitation

Next stations